TimePDT,TemperatureF,Dew PointF,Humidity,Sea Level PressureIn,VisibilityMPH,Wind Direction,Wind SpeedMPH,Gust SpeedMPH,PrecipitationIn,Events,Conditions,WindDirDegrees,DateUTC
12:56 AM,64.0,48.0,56,29.79,10.0,Calm,Calm,-,N/A,,Clear,0,2013-08-24 07:56:00
1:56 AM,63.0,48.0,58,29.80,10.0,ESE,3.5,-,N/A,,Clear,120,2013-08-24 08:56:00
2:56 AM,62.1,48.0,60,29.81,10.0,Calm,Calm,-,N/A,,Clear,0,2013-08-24 09:56:00
3:56 AM,61.0,48.0,62,29.81,10.0,SE,3.5,-,N/A,,Clear,140,2013-08-24 10:56:00
4:56 AM,59.0,48.0,67,29.82,10.0,Calm,Calm,-,N/A,,Clear,0,2013-08-24 11:56:00
5:56 AM,57.9,48.0,70,29.82,10.0,South,3.5,-,N/A,,Clear,170,2013-08-24 12:56:00
6:56 AM,60.1,50.0,69,29.83,10.0,Calm,Calm,-,N/A,,Clear,0,2013-08-24 13:56:00
7:56 AM,63.0,50.0,63,29.83,10.0,Calm,Calm,-,N/A,,Clear,0,2013-08-24 14:56:00
8:56 AM,66.9,50.0,54,29.83,10.0,Calm,Calm,-,N/A,,Clear,0,2013-08-24 15:56:00
9:56 AM,71.1,50.0,47,29.82,10.0,Calm,Calm,-,N/A,,Clear,0,2013-08-24 16:56:00
10:56 AM,75.0,51.1,43,29.80,10.0,WNW,3.5,-,N/A,,Clear,300,2013-08-24 17:56:00
11:56 AM,80.1,52.0,38,29.77,10.0,Variable,3.5,-,N/A,,Clear,0,2013-08-24 18:56:00
12:56 PM,82.9,50.0,32,29.74,10.0,WSW,4.6,-,N/A,,Clear,250,2013-08-24 19:56:00
1:56 PM,89.1,46.9,23,29.71,10.0,West,11.5,-,N/A,,Clear,270,2013-08-24 20:56:00
2:56 PM,88.0,48.0,25,29.71,10.0,NW,16.1,-,N/A,,Clear,320,2013-08-24 21:56:00
3:56 PM,87.1,46.9,25,29.70,10.0,WNW,13.8,-,N/A,,Clear,300,2013-08-24 22:56:00
4:56 PM,84.9,45.0,25,29.70,10.0,WNW,13.8,-,N/A,,Clear,290,2013-08-24 23:56:00
5:56 PM,82.9,45.0,26,29.70,10.0,NW,11.5,-,N/A,,Clear,310,2013-08-25 00:56:00
6:56 PM,82.0,45.0,27,29.71,10.0,NW,5.8,-,N/A,,Clear,320,2013-08-25 01:56:00
7:56 PM,80.1,45.0,29,29.73,10.0,NW,3.5,-,N/A,,Clear,320,2013-08-25 02:56:00
8:56 PM,77.0,45.0,32,29.75,10.0,WNW,3.5,-,N/A,,Clear,290,2013-08-25 03:56:00
9:56 PM,75.0,46.0,36,29.78,10.0,West,4.6,-,N/A,,Clear,270,2013-08-25 04:56:00
10:56 PM,75.0,46.9,37,29.79,10.0,West,8.1,-,N/A,,Clear,280,2013-08-25 05:56:00
11:56 PM,72.0,46.0,40,29.81,10.0,SW,5.8,-,N/A,,Clear,230,2013-08-25 06:56:00